Regional Weather Roundup
Issued by NWS Kansas City/Pleasant Hill, MO

Home | Current Version | Previous Version | Graphics & Text | Print | Product List | Glossary Off
Versions: 1 2 3 4 5 6 7 8 9 10 11 12 13 14 15 16 17 18 19 20 21 22 23 24 25 26 27 28 29 30 31 32 33 34 35 36 37 38 39 40 41 42 43 44 45 46 47 48 49 50

000
ASUS43 KEAX 190204
RWREAX

WEATHER ROUNDUP FOR EASTERN KANSAS AND NORTHWEST MISSOURI
NATIONAL WEATHER SERVICE KANSAS CITY/PLEASANT HILL MO
900 PM CDT THU SEP 18 2014

KSZ040-057-103>105-MOZ028-029-037-043-190300-
...KANSAS CITY METROPOLITAN AREA...

CITY           SKY/WX    TMP DP  RH WIND       PRES   REMARKS
K.C. INTL      CLEAR     64  61  90 SE8       30.01R
K.C. DOWNTOWN  CLEAR     65  61  87 E6        30.00R
LEES SUMMIT    CLEAR     63  61  93 E5        30.02R
OLATHE - IXD   CLEAR     63  62  97 E6        30.01R
OLATHE - OJC   CLEAR     63  62  97 E7        30.00R
LAWRENCE       CLEAR     61  59  93 E3        30.01R FOG

$$

MOZ001>008-011>017-020>025-030>033-038>040-044>046-053-054-190300-
...NORTHERN AND CENTRAL MISSOURI...

CITY           SKY/WX    TMP DP  RH WIND       PRES   REMARKS
ST. JOSEPH     CLEAR     62  60  93 SE3       30.01R
MOSBY          CLEAR     63  61  94 CALM      30.01S
WHITEMAN AFB   CLEAR     63  61  95 SE2       30.03R
CLINTON        CLEAR     63  63 100 CALM      30.03R
SEDALIA        CLEAR     63  61  93 SE5       30.04R FOG
WARSAW         NOT AVBL
MARSHALL       PTCLDY    66  63  88 CALM      30.04R FOG
CHILLICOTHE      N/A     65  59  81 VRB3      30.04R
MOBERLY        CLEAR     59  54  82 E5        30.06R
KIRKSVILLE     CLEAR     57  53  86 E3        30.06R

$$

MOZ041-047>049-056>058-063>065-088>090-097-190300-
...EASTERN AND SOUTHERN MISSOURI...

CITY           SKY/WX    TMP DP  RH WIND       PRES   REMARKS
ST. LOUIS INTL PTCLDY    65  54  67 SE5       30.06R
SPIRIT OF STL  CLEAR     58  56  93 CALM      30.05R
COLUMBIA       CLEAR     62  58  86 E6        30.04R
JEFFERSON CITY PTCLDY    65  59  81 CALM      30.03R
MEXICO         CLEAR     61  61 100 CALM      30.06R
ROLLA          FOG       62  60  93 CALM      30.04R VSB 1/2
LEBANON        CLEAR     63  59  88 CALM      30.05R
OSAGE BEACH    CLEAR     63  59  88 CALM      30.04R
SPRINGFIELD    CLEAR     65  61  87 E8        30.02R
BRANSON        CLOUDY    64  63  94 E6        30.05R
NEVADA         CLOUDY    68  63  83 E7        30.01R
JOPLIN         CLEAR     66  63  90 E5        30.00R
WEST PLAINS    PTCLDY    60  58  92 CALM      30.05R FOG

$$

IAZ060-094-KSZ022-034>040-054-083-096-NEZ052-066-093-190300-
...KANSAS...SOUTHEAST NEBRASKA AND IOWA...

CITY           SKY/WX    TMP DP  RH WIND       PRES   REMARKS
TOPEKA         CLEAR     64  62  93 E3        30.00R
MANHATTAN      CLOUDY    68  63  84 E12       29.96R
EMPORIA        CLEAR     66  64  93 E12       29.98R
CHANUTE        CLEAR     70  65  84 E9        29.98R
WICHITA        CLEAR     72  62  71 E13       29.95R
OMAHA          CLEAR     66  56  70 SE12      29.97S
LINCOLN        CLEAR     66  59  78 SE14G24   29.96R
FALLS CITY     CLEAR     61  59  93 SE5       29.99S
LAMONI         CLEAR     61  57  87 E3        30.04R
DES MOINES     CLEAR     64  54  69 SE8       30.04R

$$




USA.gov is the U.S. government's official web portal to all federal, state and local government web resources and services.